Long Beach, CA

7:09 AM PDT on July 22, 2017 (GMT -0700)
Long Beach

Weather History for KLGB - May, 2013

Change the Weather History Date:

Tuesday, May 21, 2013

  Actual Average Record
Temperature  
Mean Temperature 68 °F 66 °F  
Max Temperature 73 °F 74 °F 87 °F (2003)
Min Temperature 63 °F 58 °F 48 °F (1962)
Degree Days  
Heating Degree Days 0 1  
Month to date heating degree days 8 30  
Since 1 July heating degree days 1039 1206  
Cooling Degree Days 4 2  
Month to date cooling degree days 82 42  
Year to date cooling degree days 111 89  
Growing Degree Days 18 (Base 50)    
Moisture  
Dew Point 58 °F    
Average Humidity 75    
Maximum Humidity 93    
Minimum Humidity 57    
Precipitation  
Precipitation 0.00 in 0.00 in 0.26 in (2006)
Month to date precipitation 0.66 0.16  
Year to date precipitation 2.87 8.32  
Since 1 July precipitation 6.67  
Sea Level Pressure  
Sea Level Pressure 29.90 in    
Wind  
Wind Speed 6 mph (SSW)    
Max Wind Speed 12 mph    
Max Gust Speed -    
Visibility 9 miles    
Events      
T = Trace of Precipitation, MM = Missing Value Source: NWS Daily Summary

Daily Weather History Graph

Daily Weather History Graph

Search for Another Location

Airport or City:

Trip Planner

Search our weather history database for the weather conditions in past years. The results will help you decide how hot, cold, wet, or windy it might be!

Date:

Astronomy

May. 21, 2013 Rise Set
Actual Time 5:47 AM PDT 7:51 PM PDT
Civil Twilight 5:19 AM PDT 8:19 PM PDT
Nautical Twilight 4:45 AM PDT 8:53 PM PDT
Astronomical Twilight 4:08 AM PDT 9:30 PM PDT
Moon 4:19 PM PDT (5/21) 3:07 AM PDT (5/21)
Length of Visible Light 14h 59m
Length of Day
14h 03m
Waxing Gibbous, 85% of the Moon is Illuminated
May 21
Waxing Gibbous
May 24
Full
May 31
Last Quarter
Jun 8
New
Jun 16
First Quarter

Hourly Weather History & Observations

Time (PDT) Temp. Dew Point Humidity Pressure Visibility Wind Dir Wind Speed Gust Speed Precip Events Conditions
12:53 AM - - N/A% 29.94 in - North - - N/A   Unknown
1:53 AM - - N/A% 29.93 in - North - - N/A   Unknown
2:53 AM - - N/A% 29.92 in - North - - N/A   Unknown
3:53 AM - - N/A% 29.91 in - North - - N/A   Unknown
4:53 AM - - N/A% 29.91 in - North - - N/A   Unknown
5:53 AM - - N/A% 29.92 in - Variable 3.5 mph - N/A   Unknown
6:53 AM - - N/A% 29.93 in - North - - N/A   Unknown
7:36 AM - - N/A% 29.93 in - North - - N/A   Overcast
7:43 AM 64.4 °F 62.6 °F 94% 29.94 in 7.0 mi Variable 4.6 mph - N/A   Overcast
7:53 AM 64.4 °F 62.6 °F 94% 29.94 in 7.0 mi Variable 4.6 mph - N/A   Overcast
8:00 AM - - N/A% 29.94 in - Calm Calm - N/A   Unknown
8:11 AM 64.4 °F 57.2 °F 77% 29.94 in 7.0 mi South 4.6 mph - N/A   Unknown
8:34 AM 66.2 °F 57.2 °F 73% 29.94 in 8.0 mi South 3.5 mph - N/A   Overcast
8:49 AM 64.4 °F 57.2 °F 77% 29.94 in - South 4.6 mph - N/A   Unknown
8:53 AM 66.9 °F 57.0 °F 70% 29.95 in - South 3.5 mph - N/A   Unknown
9:22 AM 66.2 °F 57.2 °F 73% 29.94 in 8.0 mi East 3.5 mph - N/A   Overcast
9:53 AM 66.0 °F 57.0 °F 73% 29.94 in 8.0 mi SW 4.6 mph - N/A   Overcast
10:00 AM 66.2 °F 57.2 °F 73% 29.94 in 8.0 mi West 3.5 mph - N/A   Overcast
10:53 AM 71.1 °F 57.9 °F 63% 29.94 in 9.0 mi SE 5.8 mph - N/A   Mostly Cloudy
11:00 AM 71.6 °F 57.2 °F 60% 29.93 in 9.0 mi Variable 3.5 mph - N/A   Partly Cloudy
11:53 AM 72.0 °F 57.0 °F 59% 29.93 in 10.0 mi South 8.1 mph - N/A   Scattered Clouds
12:53 PM 73.0 °F 57.9 °F 59% 29.92 in 10.0 mi South 9.2 mph - N/A   Clear
1:53 PM 73.0 °F 57.9 °F 59% 29.90 in 9.0 mi SSW 6.9 mph - N/A   Clear
2:53 PM 72.0 °F 57.0 °F 59% 29.88 in 10.0 mi South 8.1 mph - N/A   Clear
3:53 PM 71.1 °F 57.9 °F 63% 29.87 in 10.0 mi SSW 9.2 mph - N/A   Clear
4:53 PM 71.1 °F 57.9 °F 63% 29.85 in 10.0 mi SSW 11.5 mph - N/A   Clear
5:53 PM 72.0 °F 57.9 °F 61% 29.84 in 10.0 mi Calm Calm - N/A   Clear
6:53 PM 70.0 °F 57.0 °F 63% 29.84 in 10.0 mi WNW 8.1 mph - N/A   Clear
7:53 PM 66.9 °F 57.0 °F 70% 29.84 in 9.0 mi Variable 5.8 mph - N/A   Clear
8:53 PM 64.9 °F 57.0 °F 75% 29.85 in 9.0 mi WNW 6.9 mph - N/A   Clear
9:53 PM 64.0 °F 57.0 °F 78% 29.86 in 8.0 mi WNW 4.6 mph - N/A   Partly Cloudy
10:07 PM 64.4 °F 57.2 °F 77% 29.87 in 8.0 mi NW 3.5 mph - N/A   Mostly Cloudy
10:53 PM 64.0 °F 57.0 °F 78% 29.86 in 8.0 mi Calm Calm - N/A   Overcast
11:18 PM 64.4 °F 57.2 °F 77% 29.86 in 8.0 mi South 4.6 mph - N/A   Overcast
11:53 PM 63.0 °F 57.0 °F 81% 29.86 in 8.0 mi South 5.8 mph - N/A   Overcast